Location: *
(46.2859°N, 11.5420°E)
Time: 08:46:41
(UTC+00:00)

Daily predictions for brighter satellites

Satellite Brightness Start Highest point End
(mag) Time Altitude Azimuth Time Altitude Azimuth Time Altitude Azimuth
Cosmos 2074 Rocket 4.2 17:26:50 10° N 17:33:06 83° W 17:39:17 10° S
COSMOS 2428 3.5 17:27:43 10° NNW 17:33:18 59° WSW 17:38:51 10° S
SKYMED 2 3.8 17:33:48 10° N 17:38:10 80° WNW 17:42:30 10° SSW
Cosmos 2227 Rocket 2.7 17:34:36 10° S 17:39:42 36° ESE 17:44:50 10° NE
H-2A R/B 3.6 17:39:06 10° E 17:42:10 16° ENE 17:45:16 10° NNE
ASTEX 1 4.2 17:38:01 10° NNE 17:42:15 29° E 17:46:29 10° SSE
NOSS 0 Rocket 4.1 17:37:26 10° NNW 17:43:40 83° WSW 17:49:53 10° SSE
USA 234 3.7 17:37:41 10° NE 17:44:11 67° NNW 17:50:42 10° WSW
Ariane Rocket 3.2 17:39:22 10° SE 17:44:16 51° ENE 17:49:12 10° N
HJ-1C 4.3 17:41:51 10° SE 17:44:50 30° ENE 17:47:51 10° N
RESURS DK-1 4.3 17:43:59 10° N 17:46:25 15° NE 17:48:50 10° E
Meteor 2-15 Rocket 4.5 17:40:36 10° S 17:46:44 84° E 17:52:56 10° N
Cosmos 2219 3.2 17:42:31 10° SSW 17:48:14 70° ESE 17:53:57 10° NNE
Cosmos 2297 Rocket 2.5 17:44:05 10° S 17:49:26 45° ESE 17:54:48 10° NE
ISS -3.8 17:47:01 10° WSW 17:50:21 87° SSE 17:53:41 10° ENE
Cosmos 2341 Rocket 4.2 17:45:35 10° N 17:51:40 52° ENE 17:57:41 10° SSE
CZ-2D R/B 3.2 17:48:16 10° SSE 17:52:01 63° ENE 17:55:49 10° N
Cosmos 407 Rocket 3.4 17:49:12 10° NNW 17:54:22 78° ENE 17:59:29 10° SSE
DMSP B5D1-3 4.5 17:50:46 10° NNE 17:55:51 66° ESE 18:00:55 10° S
ERBS 2.6 17:52:33 10° NW 17:55:52 51° NE 17:58:42 13° ESE
Cosmos 389 Rocket 2.4 17:54:02 10° N 17:57:27 60° ENE 18:00:51 10° SSE
YAOGAN 1 3.4 17:57:02 10° S 18:01:16 55° W 18:05:32 10° NNW
In-Cosmos 22 4.2 17:56:00 10° N 18:01:20 58° ENE 18:06:46 10° SSE
Cosmos 2056 Rocket 3.6 17:56:25 10° S 18:01:45 62° ESE 18:07:05 10° NNE
SJ-6B 4.0 18:00:11 11° ESE 18:03:19 25° ENE 18:06:40 10° N
Cosmos 2154 Rocket 4.2 17:57:43 10° N 18:03:57 80° W 18:10:10 10° S
Cosmos 1140 Rocket 3.5 17:59:41 10° NNW 18:04:51 65° ENE 18:09:57 10° SSE
ATLAS 2AS CENTAUR R/B 4.1 17:57:54 10° NW 18:04:55 42° WSW 18:11:21 10° S
SL-8 Rocket 4.2 17:59:33 10° N 18:05:31 47° ENE 18:11:24 10° SSE
GENESIS II 4.4 18:02:11 10° NW 18:06:18 81° SW 18:10:20 10° SSE
Cosmos 1892 Rocket 3.7 18:01:56 10° N 18:06:18 55° ENE 18:10:37 10° SSE
Cosmos 2084 Rocket 3.5 18:03:27 10° SW 18:07:54 83° SE 18:12:24 10° NE
GP-B 3.4 18:03:54 10° N 18:08:21 72° W 18:12:45 10° S
Cosmos 405 Rocket 2.6 18:07:09 10° S 18:10:45 55° E 18:14:26 10° NNE
DELTA 2 R/B (1) 4.3 18:06:14 10° WSW 18:11:29 42° S 18:15:28 17° ESE
Cosmos 1674 3.6 18:09:11 10° NNE 18:12:24 27° ENE 18:14:12 18° ESE
Cosmos 1624 Rocket 3.9 18:07:24 10° SSW 18:12:35 78° ESE 18:17:47 10° NNE
Resurs 01 Rocket 3.3 18:12:35 14° ENE 18:13:39 15° ENE 18:16:15 10° NNE
CZ-4 R/B 3.6 18:10:50 10° SSW 18:14:14 28° W 18:17:44 10° NW
Orbus 7S? 4.5 18:11:16 10° SW 18:15:32 76° SE 18:26:06 10° NE
Lacrosse 5 3.1 18:13:43 10° S 18:17:24 21° ESE 18:18:41 19° ESE
Cosmos 1954 Rocket 4.0 18:13:32 10° NNW 18:18:44 65° ENE 18:23:52 10° SSE
FREGAT/IRIS 2.5 18:18:02 16° SSE 18:20:03 53° ENE 18:22:49 10° N
SAR-Lupe-2 3.7 18:17:35 10° NNE 18:21:04 47° E 18:24:31 10° S
Cosmos 2237 Rocket 2.7 18:15:28 10° NNW 18:21:07 63° WSW 18:26:43 10° S
Lacrosse 5 rocket 1.3 18:20:03 10° WSW 18:23:41 70° NW 18:27:27 10° NE
Cosmos 1437 Rocket 2.8 18:25:24 10° N 18:29:06 49° ENE 18:31:13 22° SE
MOS 1 4.2 18:24:31 10° SSE 18:30:12 83° ENE 18:35:56 10° NNW
BREEZE M DEB (TANK) 2.5 18:31:44 10° WNW 18:33:58 47° N 18:35:55 23° ENE
CZ-2C R/B 3.6 18:30:29 10° NNE 18:34:52 56° E 18:39:12 10° S
Okean 1-7 Rocket 3.9 18:31:59 10° NNW 18:36:26 71° W 18:40:53 10° S
Cosmos 1939 Rocket 3.9 18:33:05 10° S 18:36:46 44° W 18:40:30 10° NNW
PSLV R/B 4.1 18:36:55 10° WSW 18:39:09 25° S 18:39:09 25° S
Meteor 1-24 Rocket 3.9 18:34:53 10° N 18:40:41 60° ENE 18:45:36 15° SSE
ATLAS CENTAUR R/B 3.0 18:39:11 10° S 18:41:43 23° SE 18:41:43 23° SE
Cosmos 1455 Rocket 3.0 18:39:19 10° S 18:43:45 88° ESE 18:48:15 10° N
Cosmos 1544 Rocket 3.5 18:39:29 10° S 18:43:55 73° E 18:48:23 10° NNE
GEOS 3 Rocket 3.5 18:41:41 25° SE 18:44:41 75° NE 18:49:49 10° NW
SJ-11-01 4.3 18:41:06 10° SSE 18:45:51 90° SW 18:50:37 10° NNW
Cosmos 1805 3.1 18:42:11 10° S 18:46:02 62° E 18:49:54 10° NNE
Cosmos 1626 4.0 18:44:41 10° NNE 18:46:14 17° NE 18:46:14 17° NE
Meteor 1-4 Rocket 3.8 18:44:24 10° NNW 18:47:43 40° W 18:50:59 10° SSW
SL-8 R/B 3.7 18:44:15 10° WNW 18:49:04 80° NNE 18:50:59 37° E
SPOT 3 Rocket 3.4 18:48:40 17° SSE 18:52:42 80° ENE 18:57:52 10° NNW
SL-08 RB Rocket 4.2 18:52:44 37° E 18:53:41 42° ENE 18:58:05 10° N
KORONAS-FOTON 3.6 18:50:59 10° N 18:54:46 75° E 18:55:51 44° SSE
Cosmos 676 Rocket 4.5 18:49:38 10° NNW 18:54:49 60° WSW 18:59:47 11° S
Cosmos 1452 Rocket 3.4 18:50:30 10° S 18:55:42 67° ESE 19:00:56 10° NNE
SL-16 R/B 2.2 18:50:01 10° NNW 18:55:43 84° WSW 18:59:29 22° SSE
ADEOS Rocket 3.5 18:53:26 10° NNE 19:00:54 60° E 19:08:35 10° S
Cosmos 1626 Rocket 3.4 18:58:27 10° N 19:02:47 75° E 19:04:04 45° SSE
USA 186 2.5 19:01:15 27° SSW 19:02:50 56° W 19:06:12 10° NNW
ARGOS 3.0 19:01:55 30° SSE 19:04:39 74° ENE 19:10:04 10° N
Cosmos 1733 3.7 19:07:16 43° NE 19:07:16 43° NE 19:10:03 10° NNE
CZ-2C R/B 3.4 19:05:50 42° ESE 19:07:12 52° ENE 19:12:41 10° N
Cosmos 2082 3.9 19:04:38 10° SSW 19:10:21 73° WNW 19:16:06 10° NNE
Cosmos 482 Debris 4.0 19:09:07 10° WSW 19:13:42 79° WNW 19:13:42 79° WNW
MetOp-A 4.1 19:13:39 48° ESE 19:14:48 60° ENE 19:20:05 10° N
H-2A R/B 2.0 19:18:45 34° S 19:20:56 77° WSW 19:26:04 10° NNW
Cosmos 2227 Rocket 3.5 19:18:24 10° SW 19:23:42 40° NW 19:29:02 10° NNE
RESURS DK-1 2.3 19:20:51 10° NNW 19:24:58 78° WSW 19:24:58 78° WSW
Cosmos 1602 Rocket 3.5 19:21:21 10° NNW 19:25:41 78° W 19:26:09 68° SSW
USA 234 4.4 19:21:00 11° NE 19:26:36 38° N 19:32:32 10° WNW
ISS -2.2 19:24:17 10° WNW 19:26:56 32° NNW 19:26:56 32° NNW
Cosmos 1850 Rocket 4.0 19:22:58 10° NNW 19:28:10 78° WSW 19:29:23 53° S
Terra 4.2 19:30:12 10° NE 19:30:12 10° NE 19:30:23 10° NNE
Resurs 1-3 3.5 19:29:47 78° SSW 19:30:00 82° W 19:34:25 10° NNW
Cosmos 2297 Rocket 3.9 19:28:33 10° WSW 19:33:38 33° NW 19:38:44 10° NNE
SL-14 R/B 4.0 19:29:43 10° N 19:32:35 46° N 19:32:35 46° N
Nadezhda 3 Rocket 3.8 19:36:25 52° SSE 19:37:56 73° E 19:44:09 10° NNE
Resurs 01 Rocket 2.1 19:50:09 60° WNW 19:50:09 60° WNW 19:54:04 10° NNW
Cosmos 1821 Rocket 3.8 19:44:43 10° N 19:50:54 89° E 19:51:36 72° S
Cosmos 1943 3.3 19:48:02 10° NNW 19:53:14 62° NNE 19:53:14 62° NNE
Cosmos 2239 Rocket 4.3 19:50:37 10° N 19:56:55 89° E 19:57:21 79° SSE
Cosmos 1535 Rocket 4.5 19:51:42 10° N 19:57:45 68° ENE 19:57:45 68° ENE
Spot 2 Rocket 3.9 20:00:29 58° N 20:00:29 58° N 20:04:34 10° NNW
Lacrosse 5 2.8 19:54:46 10° SW 19:57:58 40° WSW 19:57:58 40° WSW
Lacrosse 5 rocket 3.5 20:00:29 10° WNW 20:03:07 21° NNW 20:03:07 21° NNW
ATLAS CENTAUR R/B 4.1 20:17:13 10° SW 20:18:08 15° WSW 20:18:08 15° WSW
BREEZE-M DEB (TANK) 4.4 20:21:37 10° WNW 20:27:01 82° SSW 20:28:54 63° SE
CZ-2C R/B 3.9 20:21:34 10° NNE 20:24:41 35° NNE 20:24:41 35° NNE
CZ-4C R/B 3.7 20:22:37 10° NNW 20:28:53 36° NE 20:29:11 36° NE
Terra 4.3 21:09:05 18° NNW 21:09:05 18° NNW 21:10:16 10° NNW
USA 234 4.3 21:08:21 37° NNE 21:08:41 37° N 21:14:35 10° NW
Cosmos 2263 Rocket 4.3 21:26:33 21° N 21:26:33 21° N 21:28:35 10° NNE
CZ-4C R/B 4.2 22:10:55 10° NW 22:14:20 32° NW 22:14:20 32° NW
